Location: Marse
(42.1502°N, 110.9866°W)
Time: 07:04:24
(UTC+00:00)

ITUPSAT 1 - Pass Details

Date: 30 June 2022
Orbit: 701 x 711 km, 98.6° (Epoch: 07 August)

Event Time Altitude Azimuth Distance (km) Brightness Sun altitude
Rises 03:39:11 0° 16° (NNE) 3,108 ? -6.1°
Reaches altitude 10° 03:41:28 10° 19° (NNE) 2,186 ? -6.4°
Maximum altitude 03:46:14 68° 102° (ESE) 764 ? -7.1°
Drops below altitude 10° 03:50:59 10° 186° (S) 2,176 ? -7.8°
Sets 03:53:15 0° 189° (S) 3,092 ? -8.1°
